星链-32160 (STARLINK-32160)

导读 | 豆包AI

STARLINK-32160是美国于2024年7月27日发射的星链卫星,归属SpaceX星链星座项目。星链系统旨在为全球提供高速低延迟卫星互联网服务,该卫星承担网络覆盖扩容任务,运行在近地轨道,依靠星座组网能力,补充完善全球网络覆盖布局,推动卫星互联网服务的普及与覆盖范围拓展。

Basic Information
目录编号:
60261
目录名称:
STARLINK-32160
国际标识:
2024-131G
轨道中心:
EARTH
卫星名称:
星链-32160 (STARLINK-32160)
卫星全名:
星链-32160 (STARLINK-32160)
卫星状态:
在轨 (已飞行596 天)
发射日期:
2024-07-27 UTC
国别 :
美国 (US)
星等 :
--
Orbit Information
数据来源 国际轨道数据
星历时间: 2026-03-15T12:03:47+0800
14小时前
查看轨道信息
半长轴: 6853.424km
偏心率: 0.000154
轨道倾角: 53.160°
近地点辐角 75.956°
升交点赤经 27.252°
平近点角 284.161°
近地点: 474.231km
远地点: 476.343km
周期: 94.107分钟
每日圈数: 15.301761
Detailed Information
卫星平台:
Starlink v2.0 mini
运营商:
太空探索技术公司
运营商所在国:
美国
制造商(研发单位):
太空探索技术公司
制造商所在国:
美国
使用方式:
暂无
Satellite Introduction
星链(Starlink)计划是由太空探索技术公司(SpaceX)提出的一个巨型低轨卫星互联网星座项目,计划在2019年至2024年间在太空搭建由约1.2万颗卫星组成的“星链”网络,其中1584颗将部署在地球上空550千米处的近地轨道,并从2020年开始工作。该卫星仍在工作。
2D Orbit Map
3D Orbit Map
Orbit Altitude Analysis Chart
Orbit Inclination Analysis Chart
Orbit Comprehensive Analysis Chart
View Comprehensive Chart